Stündliche Wetter Otocznia

Heute, 14 April, Mittwoch

Zeit Temperatur Niederschläge Wind Luftdruck Luftfeuchtigkeit
00:00 +3°C° 0 mm 2 m/S 755 mmHg 67%
01:00 +3°C° 0 mm 2 m/S 755 mmHg 69%
02:00 +3°C° 0 mm 2 m/S 755 mmHg 71%
03:00 +3°C° 0 mm 2 m/S 755 mmHg 72%
04:00 +2°C° 0 mm 2 m/S 755 mmHg 74%
05:00 +3°C° 0 mm 2 m/S 755 mmHg 73%
06:00 +2°C° 0 mm 3 m/S 755 mmHg 72%
07:00 +2°C° 0 mm 3 m/S 755 mmHg 70%
08:00 +3°C° 0 mm 3 m/S 755 mmHg 66%
09:00 +4°C° 0 mm 4 m/S 755 mmHg 62%
10:00 +5°C° 0 mm 4 m/S 755 mmHg 58%
11:00 +5°C° 0 mm 4 m/S 755 mmHg 57%
12:00 +5°C° 0 mm 5 m/S 754 mmHg 56%
13:00 +6°C° 0 mm 5 m/S 754 mmHg 55%
14:00 +4°C° 0.1 mm 6 m/S 754 mmHg 60%
15:00 +4°C° 0.1 mm 6 m/S 754 mmHg 65%
16:00 +4°C° 0.1 mm 6 m/S 754 mmHg 70%
17:00 +3°C° 0.1 mm 6 m/S 754 mmHg 70%
18:00 +2°C° 0.1 mm 6 m/S 754 mmHg 71%
19:00 +2°C° 0.1 mm 6 m/S 755 mmHg 72%
20:00 +1°C° 0.2 mm 6 m/S 754 mmHg 79%
21:00 +1°C° 0.2 mm 6 m/S 754 mmHg 85%
22:00 -1°C° 0.2 mm 6 m/S 754 mmHg 91%
23:00 -1°C° 0.3 mm 6 m/S 754 mmHg 93%

Morgen, 15 April, Donnerstag

Zeit Temperatur Niederschläge Wind Luftdruck Luftfeuchtigkeit
00:00 -1°C° 0.3 mm 6 m/S 754 mmHg 94%
01:00 -1°C° 0.3 mm 6 m/S 754 mmHg 96%
02:00 -1°C° 0.4 mm 6 m/S 753 mmHg 96%
03:00 -1°C° 0.4 mm 6 m/S 753 mmHg 96%
04:00 -1°C° 0.4 mm 6 m/S 753 mmHg 96%
05:00 -1°C° 0.9 mm 6 m/S 753 mmHg 97%
06:00 -1°C° 0.9 mm 6 m/S 753 mmHg 97%
07:00 -1°C° 0.9 mm 6 m/S 752 mmHg 97%
08:00 -1°C° 0.6 mm 6 m/S 752 mmHg 97%
09:00 -1°C° 0.6 mm 6 m/S 752 mmHg 97%
10:00 -1°C° 0.6 mm 6 m/S 752 mmHg 97%
11:00 0°C° 0.3 mm 5 m/S 752 mmHg 97%
12:00 +1°C° 0.3 mm 5 m/S 752 mmHg 97%
13:00 +1°C° 0.3 mm 5 m/S 752 mmHg 97%
14:00 +1°C° 0.4 mm 5 m/S 752 mmHg 96%
15:00 +2°C° 0.4 mm 5 m/S 752 mmHg 96%
16:00 +3°C° 0.4 mm 4 m/S 752 mmHg 95%
17:00 +3°C° 0.5 mm 4 m/S 752 mmHg 95%
18:00 +4°C° 0.5 mm 4 m/S 752 mmHg 95%
19:00 +4°C° 0.5 mm 4 m/S 752 mmHg 95%
20:00 +4°C° 0.1 mm 4 m/S 752 mmHg 94%
21:00 +3°C° 0.1 mm 5 m/S 752 mmHg 94%
22:00 +3°C° 0.1 mm 5 m/S 752 mmHg 93%
23:00 +2°C° 0.2 mm 5 m/S 752 mmHg 94%

übermorgen, 16 April, Freitag

Zeit Temperatur Niederschläge Wind Luftdruck Luftfeuchtigkeit
00:00 +3°C° 0.2 mm 4 m/S 752 mmHg 95%
01:00 +3°C° 0.2 mm 4 m/S 752 mmHg 95%
02:00 +3°C° 0.4 mm 4 m/S 752 mmHg 96%
03:00 +3°C° 0.4 mm 4 m/S 752 mmHg 96%
04:00 +2°C° 0.4 mm 3 m/S 752 mmHg 96%
05:00 +2°C° 0.4 mm 3 m/S 752 mmHg 96%
06:00 +2°C° 0.4 mm 3 m/S 752 mmHg 97%
07:00 +1°C° 0.4 mm 4 m/S 752 mmHg 97%
08:00 +2°C° 0.1 mm 3 m/S 752 mmHg 96%
09:00 +3°C° 0.1 mm 3 m/S 752 mmHg 96%
10:00 +3°C° 0.1 mm 3 m/S 752 mmHg 95%
11:00 +3°C° 0.1 mm 3 m/S 753 mmHg 94%
12:00 +3°C° 0.1 mm 3 m/S 753 mmHg 94%
13:00 +4°C° 0.1 mm 4 m/S 753 mmHg 93%
14:00 +4°C° 0.2 mm 3 m/S 753 mmHg 94%
15:00 +4°C° 0.2 mm 3 m/S 753 mmHg 95%
16:00 +4°C° 0.2 mm 3 m/S 753 mmHg 96%
17:00 +4°C° 0.1 mm 3 m/S 753 mmHg 97%
18:00 +4°C° 0.1 mm 3 m/S 753 mmHg 97%
19:00 +4°C° 0.1 mm 3 m/S 753 mmHg 98%
20:00 +4°C° 0 mm 3 m/S 753 mmHg 98%
21:00 +4°C° 0 mm 3 m/S 754 mmHg 98%
22:00 +5°C° 0 mm 3 m/S 754 mmHg 98%
23:00 +4°C° 0 mm 3 m/S 754 mmHg 98%

17 April, Samstag

Zeit Temperatur Niederschläge Wind Luftdruck Luftfeuchtigkeit
00:00 +4°C° 0 mm 3 m/S 753 mmHg 98%
01:00 +4°C° 0 mm 3 m/S 753 mmHg 98%
02:00 +5°C° 0 mm 3 m/S 753 mmHg 98%
03:00 +5°C° 0 mm 3 m/S 753 mmHg 97%
04:00 +5°C° 0 mm 3 m/S 753 mmHg 97%
05:00 +5°C° 0.2 mm 3 m/S 753 mmHg 97%
06:00 +5°C° 0.2 mm 3 m/S 753 mmHg 96%
07:00 +5°C° 0.2 mm 3 m/S 753 mmHg 96%
08:00 +5°C° 0.2 mm 3 m/S 753 mmHg 95%
09:00 +7°C° 0.2 mm 3 m/S 754 mmHg 95%
10:00 +7°C° 0.2 mm 3 m/S 754 mmHg 94%
11:00 +8°C° 0 mm 3 m/S 754 mmHg 88%
12:00 +10°C° 0 mm 3 m/S 754 mmHg 82%
13:00 +11°C° 0 mm 4 m/S 754 mmHg 76%
14:00 +11°C° 0.1 mm 4 m/S 754 mmHg 75%
15:00 +11°C° 0.1 mm 4 m/S 753 mmHg 73%
16:00 +12°C° 0.1 mm 4 m/S 753 mmHg 71%
17:00 +10°C° 0.3 mm 3 m/S 753 mmHg 78%
18:00 +9°C° 0.3 mm 3 m/S 753 mmHg 84%
19:00 +8°C° 0.3 mm 3 m/S 753 mmHg 91%
20:00 +8°C° 0.4 mm 3 m/S 753 mmHg 92%
21:00 +8°C° 0.4 mm 3 m/S 753 mmHg 93%
22:00 +7°C° 0.4 mm 3 m/S 753 mmHg 95%
23:00 +7°C° 0.1 mm 3 m/S 753 mmHg 95%

18 April, Sonntag

Zeit Temperatur Niederschläge Wind Luftdruck Luftfeuchtigkeit
00:00 +5°C° 0.1 mm 3 m/S 753 mmHg 95%
01:00 +4°C° 0.1 mm 3 m/S 753 mmHg 95%
02:00 +4°C° 0 mm 3 m/S 753 mmHg 95%
03:00 +4°C° 0 mm 3 m/S 753 mmHg 95%
04:00 +3°C° 0 mm 3 m/S 754 mmHg 95%
05:00 +4°C° 0 mm 3 m/S 754 mmHg 92%
06:00 +5°C° 0 mm 3 m/S 754 mmHg 89%
07:00 +7°C° 0 mm 3 m/S 754 mmHg 86%
08:00 +8°C° 0 mm 3 m/S 754 mmHg 82%
09:00 +7°C° 0 mm 4 m/S 754 mmHg 78%
10:00 +8°C° 0 mm 4 m/S 754 mmHg 74%
11:00 +10°C° 0 mm 4 m/S 754 mmHg 72%
12:00 +10°C° 0 mm 4 m/S 754 mmHg 71%
13:00 +10°C° 0 mm 4 m/S 754 mmHg 70%
14:00 +11°C° 0 mm 4 m/S 754 mmHg 69%
15:00 +11°C° 0 mm 4 m/S 754 mmHg 69%
16:00 +11°C° 0 mm 3 m/S 754 mmHg 68%
17:00 +10°C° 0 mm 3 m/S 754 mmHg 72%
18:00 +10°C° 0 mm 3 m/S 754 mmHg 75%
19:00 +9°C° 0 mm 2 m/S 754 mmHg 78%
20:00 +8°C° 0 mm 2 m/S 754 mmHg 80%
21:00 +8°C° 0 mm 2 m/S 754 mmHg 82%
22:00 +7°C° 0 mm 2 m/S 754 mmHg 84%
23:00 +8°C° 0 mm 2 m/S 754 mmHg 85%

19 April, Montag

Zeit Temperatur Niederschläge Wind Luftdruck Luftfeuchtigkeit
00:00 +8°C° 0 mm 3 m/S 754 mmHg 85%
01:00 +8°C° 0 mm 3 m/S 754 mmHg 86%
02:00 +7°C° 0.3 mm 3 m/S 754 mmHg 88%
03:00 +7°C° 0.3 mm 3 m/S 753 mmHg 91%
04:00 +7°C° 0.3 mm 2 m/S 753 mmHg 93%
05:00 +8°C° 0.3 mm 2 m/S 753 mmHg 94%
06:00 +8°C° 0.3 mm 2 m/S 753 mmHg 94%
07:00 +8°C° 0.3 mm 2 m/S 753 mmHg 95%
08:00 +9°C° 0.2 mm 3 m/S 753 mmHg 92%
09:00 +9°C° 0.2 mm 3 m/S 753 mmHg 89%
10:00 +10°C° 0.2 mm 4 m/S 753 mmHg 86%
11:00 +8°C° 0.3 mm 4 m/S 753 mmHg 87%
12:00 +8°C° 0.3 mm 4 m/S 753 mmHg 88%
13:00 +8°C° 0.3 mm 4 m/S 752 mmHg 89%
14:00 +8°C° 0.5 mm 4 m/S 752 mmHg 91%
15:00 +7°C° 0.5 mm 4 m/S 752 mmHg 92%
16:00 +7°C° 0.5 mm 4 m/S 752 mmHg 93%
17:00 +7°C° 0.1 mm 4 m/S 752 mmHg 93%
18:00 +7°C° 0.1 mm 4 m/S 752 mmHg 93%
19:00 +8°C° 0.1 mm 3 m/S 752 mmHg 92%
20:00 +7°C° 0 mm 4 m/S 752 mmHg 93%
21:00 +7°C° 0 mm 4 m/S 752 mmHg 94%
22:00 +7°C° 0 mm 4 m/S 751 mmHg 94%
23:00 +7°C° 0 mm 4 m/S 751 mmHg 95%
Mehr zeigen

Wir brauchen deine Erlaubnis

Meteoprog und unser Service Anbieter werden persönliche Daten aufbewahren, so wie Cookies, Geräte Bezeichnung oder ähnliche Technologien von deinem Gerät und Prozess, so wie Persönliche Daten Inhalte und Werbungen, genauso wie social Media und den Verkehr zu analysieren.

  • Aufbewahrung und/oder Zugang zu deiner Geräte Informationen.

    Cookies, Geräte Bezeichnung oder andere Informationen, können aufbewahrt oder Zugang zu deinem Gerät erhalten, für den Grund, der oben angegeben wird.

  • Personalisierte Werbung und Inhalte, Messungen, Einblick in das Publikum und Produkt Entwicklung.

    Werbungen und Inhalte können personalisiert werden, basierend auf ein Profil. Mehr Daten können besser personalisierte Werbungen und Inhalte hinzufügen. Werbung und Inhalte können gezeigt und gemessen werden. Einblicke über das Publikum, welche die Werbung gesehen haben und den Inhalt, können abgeleitet werden. So wie Daten können genutzt werden, um es zu verbessern oder die Benutzer Erfahrung zu verbessern das System und die Software.

Wenn du “Ich stimme zu” klickst, erlaubst du uns, die Cookies zu benutzen die Geräte Bezeichnung, den Web oder ähnliche Technologien zu benutzen. Deine Settings, können in deinem Gerät bei deinem Browser geändert werden.

Für den bestimmten Zweck, berechtigten Interessen beruhen darauf, mehr als auf den Inhalt. Du kannst mehr darüber in unseren Privaten und Cookie Politik lesen.